Location: Boiro
(42.6475°N, 8.8834°W)
Time: 20:52:35
(UTC+01:00)

Vanguard 3 - Pass Details

Date: 06 December 2021
Orbit: 508 x 3260 km, 33.3° (Epoch: 17 January)

Event Time Altitude Azimuth Distance (km) Brightness Sun altitude
Rises 09:22:13 0° 276° (W) 7,174 11.4 3.9°
Reaches altitude 10° 09:27:37 10° 271° (W) 5,991 11.1 4.7°
Maximum altitude 09:43:41 44° 209° (SSW) 3,013 10.3 7.1°
Drops below altitude 10° 09:53:59 10° 141° (SE) 3,912 13.1 8.5°
Sets 09:56:44 0° 134° (SE) 4,575 13.5 8.9°
